When you browse on this site, cookies collect data to enhance your experience and personalize the content and advertising you see.
Visit our Privacy Policy to learn more. By continuing to use the site, you agree to this use of cookies and data.
  • In Lithuania
  • List of Countries
  • For 7 days
  • Water Temperature
  • Weather Map
  • Weather Widgets
  • user-avatar
    Login

    Hourly Weather Linz

    Today, 19 August, Monday

    Time Temperature Precipitation Wind Pressure Humidity
    00:00 +23°C° 0 mm 1 mps 732 mmHg 68%
    01:00 +22°C° 0 mm 1 mps 732 mmHg 75%
    02:00 +20°C° 0.4 mm 2 mps 732 mmHg 81%
    03:00 +20°C° 0.4 mm 3 mps 732 mmHg 87%
    04:00 +19°C° 0.4 mm 4 mps 732 mmHg 92%
    05:00 +20°C° 0.2 mm 3 mps 733 mmHg 92%
    06:00 +20°C° 0.2 mm 3 mps 734 mmHg 91%
    07:00 +21°C° 0 mm 3 mps 735 mmHg 86%
    08:00 +21°C° 0 mm 3 mps 735 mmHg 82%
    09:00 +23°C° 0 mm 2 mps 735 mmHg 77%
    10:00 +24°C° 0 mm 2 mps 735 mmHg 72%
    11:00 +24°C° 0 mm 2 mps 735 mmHg 73%
    12:00 +24°C° 0 mm 2 mps 735 mmHg 73%
    13:00 +24°C° 0 mm 1 mps 736 mmHg 74%
    14:00 +24°C° 0.1 mm 1 mps 735 mmHg 73%
    15:00 +24°C° 0.1 mm 2 mps 735 mmHg 72%
    16:00 +25°C° 0.1 mm 2 mps 735 mmHg 71%
    17:00 +24°C° 0.1 mm 1 mps 735 mmHg 76%
    18:00 +23°C° 0.1 mm 1 mps 736 mmHg 81%
    19:00 +22°C° 0.1 mm 1 mps 736 mmHg 86%
    20:00 +21°C° 0.4 mm 1 mps 736 mmHg 88%
    21:00 +21°C° 0.4 mm 1 mps 737 mmHg 90%
    22:00 +20°C° 0.4 mm 1 mps 737 mmHg 93%
    23:00 +20°C° 0.3 mm 1 mps 737 mmHg 94%

    Tomorrow, 20 August, Tuesday

    Time Temperature Precipitation Wind Pressure Humidity
    00:00 +20°C° 0.3 mm 1 mps 737 mmHg 94%
    01:00 +17°C° 0.3 mm 0 mps 737 mmHg 95%
    02:00 +19°C° 0 mm 1 mps 737 mmHg 95%
    03:00 +19°C° 0 mm 1 mps 736 mmHg 95%
    04:00 +19°C° 0 mm 1 mps 736 mmHg 96%
    05:00 +19°C° 0 mm 1 mps 736 mmHg 94%
    06:00 +20°C° 0 mm 1 mps 736 mmHg 92%
    07:00 +20°C° 0 mm 1 mps 736 mmHg 90%
    08:00 +22°C° 0 mm 1 mps 736 mmHg 83%
    09:00 +24°C° 0 mm 2 mps 736 mmHg 76%
    10:00 +26°C° 0 mm 2 mps 736 mmHg 69%
    11:00 +26°C° 0.2 mm 2 mps 736 mmHg 67%
    12:00 +27°C° 0.2 mm 2 mps 736 mmHg 66%
    13:00 +28°C° 0.2 mm 2 mps 735 mmHg 64%
    14:00 +28°C° 0.6 mm 1 mps 735 mmHg 66%
    15:00 +28°C° 0.6 mm 1 mps 735 mmHg 69%
    16:00 +27°C° 0.6 mm 1 mps 735 mmHg 71%
    17:00 +26°C° 0.4 mm 1 mps 735 mmHg 78%
    18:00 +24°C° 0.4 mm 2 mps 735 mmHg 84%
    19:00 +22°C° 0.4 mm 3 mps 735 mmHg 90%
    20:00 +21°C° 1 mm 3 mps 736 mmHg 92%
    21:00 +19°C° 1 mm 4 mps 736 mmHg 93%
    22:00 +17°C° 1 mm 5 mps 737 mmHg 95%
    23:00 +16°C° 0.4 mm 5 mps 737 mmHg 95%

    Day after tomorrow, 21 August, Wednesday

    Time Temperature Precipitation Wind Pressure Humidity
    00:00 +17°C° 0.4 mm 4 mps 738 mmHg 95%
    01:00 +15°C° 0.4 mm 4 mps 738 mmHg 95%
    02:00 +16°C° 0.5 mm 3 mps 738 mmHg 95%
    03:00 +16°C° 0.5 mm 3 mps 739 mmHg 95%
    04:00 +16°C° 0.5 mm 3 mps 739 mmHg 95%
    05:00 +16°C° 0.5 mm 2 mps 739 mmHg 95%
    06:00 +15°C° 0.5 mm 2 mps 740 mmHg 95%
    07:00 +15°C° 0.5 mm 2 mps 740 mmHg 95%
    08:00 +15°C° 0.2 mm 1 mps 741 mmHg 94%
    09:00 +16°C° 0.2 mm 1 mps 741 mmHg 94%
    10:00 +16°C° 0.2 mm 1 mps 741 mmHg 93%
    11:00 +18°C° 0 mm 1 mps 741 mmHg 85%
    12:00 +20°C° 0 mm 1 mps 741 mmHg 77%
    13:00 +21°C° 0 mm 1 mps 741 mmHg 69%
    14:00 +22°C° 0 mm 1 mps 741 mmHg 67%
    15:00 +22°C° 0 mm 1 mps 740 mmHg 65%
    16:00 +22°C° 0 mm 1 mps 740 mmHg 64%
    17:00 +21°C° 0 mm 1 mps 740 mmHg 69%
    18:00 +20°C° 0 mm 1 mps 740 mmHg 75%
    19:00 +19°C° 0 mm 1 mps 740 mmHg 81%
    20:00 +18°C° 0 mm 1 mps 740 mmHg 82%
    21:00 +16°C° 0 mm 2 mps 740 mmHg 84%
    22:00 +16°C° 0 mm 2 mps 740 mmHg 85%
    23:00 +15°C° 0 mm 2 mps 740 mmHg 87%

    22 August, Thursday

    Time Temperature Precipitation Wind Pressure Humidity
    00:00 +15°C° 0 mm 2 mps 740 mmHg 88%
    01:00 +15°C° 0 mm 2 mps 740 mmHg 90%
    02:00 +14°C° 0 mm 2 mps 739 mmHg 90%
    03:00 +14°C° 0 mm 2 mps 739 mmHg 91%
    04:00 +14°C° 0 mm 2 mps 739 mmHg 92%
    05:00 +15°C° 0 mm 2 mps 739 mmHg 89%
    06:00 +15°C° 0 mm 2 mps 739 mmHg 85%
    07:00 +16°C° 0 mm 2 mps 740 mmHg 82%
    08:00 +18°C° 0 mm 3 mps 739 mmHg 76%
    09:00 +19°C° 0 mm 3 mps 739 mmHg 69%
    10:00 +21°C° 0 mm 3 mps 739 mmHg 63%
    11:00 +22°C° 0 mm 3 mps 739 mmHg 61%
    12:00 +24°C° 0 mm 3 mps 739 mmHg 58%
    13:00 +25°C° 0 mm 3 mps 739 mmHg 56%
    14:00 +25°C° 0 mm 3 mps 739 mmHg 56%
    15:00 +25°C° 0 mm 3 mps 738 mmHg 57%
    16:00 +25°C° 0 mm 3 mps 738 mmHg 58%
    17:00 +22°C° 0 mm 3 mps 738 mmHg 65%
    18:00 +21°C° 0 mm 2 mps 738 mmHg 71%
    19:00 +19°C° 0 mm 2 mps 738 mmHg 78%
    20:00 +18°C° 0 mm 2 mps 739 mmHg 80%
    21:00 +17°C° 0 mm 2 mps 739 mmHg 82%
    22:00 +16°C° 0 mm 2 mps 739 mmHg 84%
    23:00 +16°C° 0 mm 2 mps 739 mmHg 86%

    23 August, Friday

    Time Temperature Precipitation Wind Pressure Humidity
    00:00 +15°C° 0 mm 1 mps 739 mmHg 88%
    01:00 +15°C° 0 mm 1 mps 739 mmHg 90%
    02:00 +15°C° 0 mm 1 mps 739 mmHg 91%
    03:00 +14°C° 0 mm 1 mps 739 mmHg 92%
    04:00 +14°C° 0 mm 1 mps 738 mmHg 93%
    05:00 +15°C° 0 mm 1 mps 738 mmHg 90%
    06:00 +16°C° 0 mm 2 mps 739 mmHg 87%
    07:00 +16°C° 0 mm 2 mps 739 mmHg 84%
    08:00 +18°C° 0 mm 2 mps 739 mmHg 78%
    09:00 +20°C° 0 mm 2 mps 739 mmHg 73%
    10:00 +21°C° 0 mm 3 mps 739 mmHg 67%
    11:00 +24°C° 0 mm 3 mps 738 mmHg 65%
    12:00 +25°C° 0 mm 3 mps 738 mmHg 62%
    13:00 +26°C° 0 mm 3 mps 737 mmHg 60%
    14:00 +26°C° 0.2 mm 3 mps 737 mmHg 63%
    15:00 +26°C° 0.2 mm 3 mps 737 mmHg 65%
    16:00 +26°C° 0.2 mm 3 mps 737 mmHg 68%
    17:00 +24°C° 0.1 mm 2 mps 737 mmHg 74%
    18:00 +23°C° 0.1 mm 2 mps 737 mmHg 79%
    19:00 +22°C° 0.1 mm 1 mps 736 mmHg 85%
    20:00 +21°C° 0 mm 1 mps 737 mmHg 86%
    21:00 +21°C° 0 mm 1 mps 737 mmHg 87%
    22:00 +20°C° 0 mm 1 mps 737 mmHg 89%
    23:00 +19°C° 0 mm 1 mps 737 mmHg 90%

    24 August, Saturday

    Time Temperature Precipitation Wind Pressure Humidity
    00:00 +19°C° 0 mm 1 mps 736 mmHg 92%
    01:00 +18°C° 0 mm 1 mps 736 mmHg 93%
    02:00 +18°C° 0 mm 1 mps 736 mmHg 93%
    03:00 +18°C° 0 mm 1 mps 736 mmHg 94%
    04:00 +16°C° 0 mm 1 mps 735 mmHg 94%
    05:00 +16°C° 0 mm 0 mps 735 mmHg 93%
    06:00 +17°C° 0 mm 0 mps 735 mmHg 91%
    07:00 +18°C° 0 mm 0 mps 735 mmHg 89%
    08:00 +22°C° 0 mm 1 mps 735 mmHg 83%
    09:00 +23°C° 0 mm 1 mps 735 mmHg 77%
    10:00 +25°C° 0 mm 1 mps 735 mmHg 71%
    11:00 +26°C° 0 mm 1 mps 735 mmHg 67%
    12:00 +27°C° 0 mm 1 mps 735 mmHg 63%
    13:00 +29°C° 0 mm 1 mps 734 mmHg 59%
    14:00 +29°C° 0.1 mm 1 mps 734 mmHg 59%
    15:00 +29°C° 0.1 mm 1 mps 734 mmHg 59%
    16:00 +27°C° 0.1 mm 0 mps 733 mmHg 59%
    17:00 +27°C° 0.1 mm 1 mps 733 mmHg 66%
    18:00 +26°C° 0.1 mm 1 mps 733 mmHg 73%
    19:00 +24°C° 0.1 mm 1 mps 733 mmHg 80%
    20:00 +23°C° 0.5 mm 1 mps 733 mmHg 83%
    21:00 +22°C° 0.5 mm 1 mps 733 mmHg 85%
    22:00 +22°C° 0.5 mm 1 mps 733 mmHg 88%
    23:00 +21°C° 0.1 mm 1 mps 733 mmHg 88%
    Show more